Regional Weather Roundup
Issued by NWS

Home | Current Version | Previous Version | Text Only | Print | Product List | Glossary Off
Versions: 1 2 3 4 5 6 7 8 9 10 11 12 13 14 15 16 17 18 19 20 21 22 23 24 25 26 27 28 29 30 31 32 33 34 35 36 37 38 39 40 41 42 43 44 45 46 47 48 49 50

000
ASUS43 KDTX 291401
RWRMI
MICHIGAN HOURLY REGIONAL WEATHER ROUNDUP
NATIONAL WEATHER SERVICE DETROIT/PONTIAC MI
1000 AM EDT FRI APR 29 2016

NOTE: "FAIR" INDICATES FEW OR NO CLOUDS BELOW 12,000 FEET WITH NO
SIGNIFICANT WEATHER AND/OR OBSTRUCTION TO VISIBILITY.

MIZ047>049-052>055-059>063-066>070-074>076-081>083-291500-
SOUTHEAST LOWER MICHIGAN

CITY           SKY/WX    TMP DP  RH WIND       PRES   REMARKS
ADRIAN         CLOUDY    47  34  60 NE3       30.04F
ALMA           LGT RAIN  39  37  93 N6        30.11R WCI  34
ANN ARBOR      CLOUDY    45  34  65 NE5       30.05R
BAD AXE        CLOUDY    44  32  62 E10       30.10S
CARO           LGT RAIN  44  31  62 CALM      30.09R
DETROIT CITY   CLOUDY    43  34  70 NE6       30.06R
DETROIT        CLOUDY    43  37  79 NE5       30.06R
FLINT          CLOUDY    46  33  60 N3        30.08S
GROSSE ILE     LGT RAIN  45  37  76 N6        30.05R
HILLSDALE      CLOUDY    45  33  63 NW3       30.04S
HOWELL         CLOUDY    42  37  80 CALM      30.05S

CITY           SKY/WX    TMP DP  RH WIND       PRES   REMARKS
JACKSON        CLOUDY    43  36  76 N5        30.05S
LAMBERTVILLE   CLOUDY    48  34  57 CALM      30.05S
LANSING        LGT RAIN  42  37  82 N7        30.09R
LAPEER         CLOUDY    43  31  63 NE5       30.06F
MASON          CLOUDY    42  36  79 N5        30.06S
MONROE         CLOUDY    46  36  69 N6        30.05R
PONTIAC        CLOUDY    42  33  70 NE6       30.03F
PORT HOPE        N/A     43  34  70 SE9       30.09S
PORT HURON     CLOUDY    43  34  70 NE8       30.06F
TRI CITIES     CLOUDY    44  36  73 N8        30.11R
MIDLAND        CLOUDY    44  34  67 N5        30.11R
TROY           CLOUDY    44  34  69 NE7       30.07S
SAGINAW HB     LGT RAIN  41  36  81 CALM      30.10R
$$
MIZ043>046-050>051-056>058-064>065-071>073-077>080-291500-
SOUTHWEST LOWER MICHIGAN

CITY           SKY/WX    TMP DP  RH WIND       PRES   REMARKS
BATTLE CREEK   CLOUDY    43  37  79 N3        30.07R
BENTON HARBOR  CLOUDY    48  42  80 VRB3      30.04F
BIG RAPIDS     LGT RAIN  39  35  88 NE5       30.10R
COLDWATER      CLOUDY    45  39  79 N6        30.05S
FREMONT        CLOUDY    39  38  93 NE6       30.09S
HOLLAND        CLOUDY    43  38  82 E7        30.08S
GRAND RAPIDS   CLOUDY    42  37  82 NE7       30.08S
IONIA          CLOUDY    39  36  89 NE7       30.08R WCI  34
KALAMAZOO      LGT RAIN  44  39  82 VRB3      30.06F
LUDINGTON      CLOUDY    39  38  94 E9        30.11S WCI  33
MARSHALL       LGT RAIN  43  38  83 CALM      30.06S
MOUNT PLEASANT MIX PCPN  42  33  71 NE3       30.10S
MUSKEGON       CLOUDY    42  35  76 NE9       30.09S
$$
MIZ016>042-291500-
NORTHERN LOWER MICHIGAN

CITY           SKY/WX    TMP DP  RH WIND       PRES   REMARKS
ALPENA         CLOUDY    43  32  65 NE6       30.14S
BEAVER ISLAND  MOSUNNY   44  32  62 E7        30.15S
BELLAIRE       CLOUDY    45  27  49 CALM      30.13S
CADILLAC       CLOUDY    42  29  59 E6        30.08S
CHARLEVOIX     MOSUNNY   44  29  55 E6        30.16S
FRANKFORT      CLOUDY    46  31  57 SE3       30.12R
GAYLORD        CLOUDY    41  29  62 NE5       30.11S
GRAYLING       CLOUDY    46  31  56 E3        30.11F
HARBOR SPRINGS MOSUNNY   43  31  62 E8        30.14S
HOUGHTON LAKE  CLOUDY    44  30  57 NE8       30.11R
MANISTEE       CLOUDY    45  25  45 E3        30.12S
OSCODA         CLOUDY    45  33  63 CALM      30.12S
PELLSTON       CLOUDY    43  30  60 NE6       30.15S
ROGERS CITY    CLOUDY    38  33  80 NE3       30.16S
TRAVERSE CITY  CLOUDY    43  30  60 N8        30.11S
$$
MIZ007>008-015-291500-
EASTERN UPPER MICHIGAN

CITY           SKY/WX    TMP DP  RH WIND       PRES   REMARKS
KINROSS          N/A     46  28  49 E3        30.16R
MACKINAC ISLAN CLOUDY    41  31  68 E6        30.15S
NEWBERRY       CLOUDY    47  31  54 CALM      30.14F
S. S. MARIE    CLOUDY    45  26  47 E6        30.16S
MUNISING         N/A     40  35  83 E5        30.17R
$$
MIZ004>006-011>014-085-291500-
CENTRAL UPPER MICHIGAN

CITY           SKY/WX    TMP DP  RH WIND       PRES   REMARKS
MANISTIQUE     CLOUDY    48  27  44 E5        30.15S
ESCANABA       CLOUDY    45  27  49 NE8       30.16S
MENOMINEE      CLOUDY    43  30  61 E13       30.14F
SAWYER-GWINN   CLOUDY    43  27  52 NE3       30.18R
$$
MIZ001>003-009>011-084-291500-
WESTERN UPPER MICHIGAN

CITY           SKY/WX    TMP DP  RH WIND       PRES   REMARKS
IRON MOUNTAIN  CLOUDY    44  26  49 E6        30.14S
HOUGHTON       SUNNY     44  28  53 NW7       30.15S
COPPER HARBOR    N/A     43  33  68 N7        30.17S
IRONWOOD       SUNNY     41  28  60 N5        30.15R
$$

ABBREVIATIONS USED IN REMARKS
   TC - TEMPERATURE IN CELSIUS
  WCI - WIND CHILL INDEX
   HX - HEAT INDEX
  VSB - VISIBILITY




USA.gov is the U.S. government's official web portal to all federal, state and local government web resources and services.